Погода в Тортоли

Италия     39°55′35″N   9°39′23″E
темп.,
°C
ветер,
м/с
пор.,
м/с
влажн.,
%
обл.,
%
осадки,
мм/ч
давл.,
гПа
погр.,
м
18 января, пн
пн1801:00+9ссз7117447 0.0 1016748
04:00+8сз568148 1.1 1018473
07:00+9ссз357857 1.2 1020530
10:00+10с336646 0.0 1023843
13:00+11всв216124 0.0 1023587
16:00+10юв23640 0.0 1023501
19:00+9ююз23759 0.0 1024426
22:00+8зсз33760 0.0 102590
19 января, вт
вт1901:00+7зсз22710 0.0 1025139
04:00+7зсз33682 0.0 1025125
07:00+6зсз22692 0.0 1025103
10:00+9з11570 0.0 1027199
13:00+11юв33620 0.0 1026472
16:00+11ююв44690 0.0 1025411
19:00+9юз33760 0.0 1026283
22:00+8з22730 0.0 102678
20 января, ср
ср2001:00+8з22700 0.0 102581
04:00+7зюз226933 0.0 1023113
07:00+7зсз226567 0.0 102296
10:00+10зюз01620 0.0 1022173
13:00+12юв23700 0.0 1020300
16:00+13ю347567 0.0 1018259
19:00+11ююз467883 0.0 1018224
22:00+11ююз4665100 0.0 1017210
21 января, чт
чт2101:00+11юз3451100 0.0 1016124
04:00+11зюз2349100 0.0 101472
07:00+12юз2353100 0.0 101464
10:00+13ю3466100 0.0 1015140
13:00+14ююз5870100 0.1 1015702
16:00+15юз246853 0.1 1013618
19:00+11юз347927 0.1 101494
22:00+11юз348262 0.0 1014128
22 января, пт
пт2201:00+11юз588081 0.0 1013343
04:00+11ю7988100 0.0 1011441
07:00+13ю81384100 0.3 1010590
10:00+14ю91379100 0.1 1009891
13:00+17ююз51059100 0.1 1008896
16:00+15юз276167 0.0 1007871
19:00+11зюз157133 0.0 1008249
22:00+11сз2116324 0.0 1009887